Weather in Zachatye

Russia / Yaroslavl Oblast     57°06′58″N   38°45′28″E
temp.,
°C
wind,
m/s
gust,
m/s
humid.,
%
clouds,
%
prec.,
mm/h
press.,
hPa
HPBL,
m
14 may, fri
fri1400:00+11s31185100 0.0 1017432
03:00+8s2798100 0.0 1018160
06:00+10s27915 0.0 1018182
09:00+16sse3561100 0.0 1018846
12:00+19sse366043 0.0 10171323
15:00+19se356635 0.6 1016990
18:00+17sse378252 1.2 1014351
21:00+14sse41292100 2.0 1014465
15 may, sat
sat1500:00+13ese21098100 0.4 1013294
03:00+13ese3998100 0.5 1012247
06:00+14sse41297100 0.8 1011408
09:00+19s4117987 0.9 1010651
12:00+21sse487936 2.8 10091063
15:00+19s4887100 6.6 1008722
18:00+18ssw49808 0.8 1008569
21:00+15s312896 1.2 1009322
16 may, sun
sun1600:00+12s210965 0.0 1010218
03:00+11s399895 0.0 1010276
06:00+13ssw310956 0.0 1011427
09:00+17ssw58662 0.0 10111072
12:00+19sw58655 0.4 10121363
15:00+20sw585463 1.1 10122061
18:00+17wsw388165 1.9 1012710
21:00+13sw24955 2.1 101389
17 may, mon
mon1700:00+12sw24977 0.0 101492
03:00+11sw1197100 0.0 101516
06:00+13s119379 0.0 101658
09:00+18sse2373100 0.0 1016501
12:00+22se2353100 0.0 10151244
15:00+23se4555100 0.0 10141264
18:00+22ese496970 0.0 1012883
21:00+17e3119086 0.6 1011280
18 may, tue
tue1800:00+15se3129173 0.0 1011235
03:00+13se3119540 0.0 1010209
06:00+16se4138474 0.0 1009372
09:00+21sse510566 0.0 1008603
12:00+25sse6114662 0.0 10081051
15:00+26se5124763 0.0 10071840
18:00+22s51164100 0.1 10061145
21:00+16sse21296100 0.9 1007396